Wetbulb
38.21 34.11 32.60 37.46 37.01 35.54 32.39 30.98 30.84 35.25 38.85 35.07 35.84 37.23 39.92 43.29 42.81 39.11 40.18 42.47 43.67 44.54 47.09 45.81 43.62 42.31 42.22 41.20 41.49 40.93 39.72 40.23 40.19 38.24 36.62 37.12 37.54 36.72 36.47 37.08 36.49 35.04 34.62 33.82
34.46 31.89 38.75 37.31 36.05 35.55 34.78 33.69 32.51 37.50 39.27 34.55 35.68 36.09 39.68 40.00 42.06 43.73 43.78 43.20 44.13 44.27 44.80 45.50 40.88 39.75 40.79 41.52 41.74 41.09 40.25 39.73 40.09 40.22 40.15 38.86 39.23 35.63 37.56 36.06 35.35 35.06 33.85 33.14
35.95 36.45 39.60 37.11 34.52 34.15 33.02 31.42 34.31 33.88 35.07 33.85 32.51 34.03 35.99 38.02 40.74 42.69 43.69 44.30 44.62 44.31 44.42 45.01 40.58 38.83 39.73 40.71 40.75 40.88 40.12 39.48 40.25 40.38 38.76 32.78 32.70 31.32 31.29 32.51 33.89 33.95 33.73 32.66
34.49 38.74 37.85 34.33 33.54 35.99 33.59 36.07 36.20 34.64 29.62 29.34 31.80 27.78 32.48 37.01 38.91 38.14 41.53 43.17 42.57 43.55 44.00 43.90 42.53 38.42 38.05 40.73 40.71 40.71 39.82 38.84 39.94 39.31 37.70 37.08 36.87 35.86 34.99 36.48 35.06 33.55 32.88 31.96
33.69 33.70 32.97 33.46 36.50 36.61 35.00 35.72 34.03 30.95 28.20 27.04 27.60 25.34 30.53 34.14 33.75 37.50 40.63 42.15 43.34 43.79 42.63 43.47 42.79 39.71 39.99 39.02 38.29 38.80 38.49 38.11 39.32 38.51 38.44 37.72 37.36 37.55 34.26 32.88 31.53 32.14 31.44 31.64
35.53 35.37 36.52 36.17 35.70 36.26 35.24 32.30 31.23 28.22 27.59 24.01 29.43 29.40 30.32 30.98 35.12 35.78 38.97 40.80 41.97 43.53 42.22 40.80 39.29 38.92 37.73 35.83 35.59 36.59 37.02 36.87 38.23 37.41 37.69 37.38 36.96 32.38 30.93 30.84 31.80 31.87 31.54 30.54
30.34 32.59 34.28 37.01 32.90 33.08 34.39 29.61 23.64 21.20 19.90 23.69 29.40 26.85 34.41 36.41 37.06 38.73 40.47 40.71 40.16 39.15 39.07 39.25 38.24 37.53 36.00 33.60 33.69 34.68 35.71 35.61 36.78 36.13 36.67 36.43 36.45 34.35 34.29 32.26 33.20 31.53 30.68 29.88
27.50 29.51 32.89 35.09 35.34 32.30 31.34 31.52 24.18 16.42 19.85 28.55 27.13 27.35 35.77 38.03 39.27 38.54 36.81 37.62 38.49 38.61 38.93 37.68 38.37 37.14 35.22 33.60 32.94 35.14 34.44 35.11 35.48 35.03 35.65 35.91 36.23 35.24 34.58 33.30 33.61 32.51 32.44 32.15
26.85 28.51 32.19 33.62 33.55 36.02 29.17 28.00 32.69 26.38 16.10 17.51 29.54 32.97 39.26 35.40 36.13 35.32 37.14 34.89 36.02 36.59 36.63 36.37 36.56 35.53 34.63 33.45 32.76 33.12 33.23 34.49 34.64 34.44 35.52 35.43 35.35 34.50 33.68 31.99 32.28 32.78 32.27 31.34
33.58 28.78 33.68 30.72 33.04 32.41 32.51 32.89 26.35 25.79 20.71 15.57 27.13 27.70 31.89 36.03 39.70 41.69 36.45 35.83 35.57 36.09 36.95 37.51 37.30 36.25 34.67 33.56 33.24 33.22 33.13 34.87 34.27 34.12 35.17 35.26 34.46 34.35 32.46 29.85 31.06 31.49 31.07 30.27
37.29 34.13 32.69 34.40 31.16 32.05 28.53 28.46 29.13 30.16 28.65 25.25 23.64 28.90 40.42 38.51 35.57 34.28 34.85 35.97 36.14 38.03 39.45 38.65 38.50 37.49 35.62 34.36 33.16 32.60 32.65 33.07 33.34 33.51 33.95 33.58 32.80 33.37 32.45 30.72 31.03 31.11 30.19 29.35
36.94 35.46 31.40 32.08 34.35 33.37 32.35 31.74 31.81 27.32 25.25 28.17 29.61 30.46 42.34 42.13 41.71 40.94 42.09 41.81 37.86 37.42 38.25 38.36 38.39 39.48 38.14 35.32 33.85 33.68 33.10 33.27 33.82 34.20 33.24 32.91 33.27 32.78 32.35 31.69 30.86 30.90 29.35 28.97
37.65 32.58 29.17 30.29 30.83 32.10 32.18 34.65 35.00 34.51 32.56 27.46 24.23 27.75 40.89 41.52 41.43 42.49 41.87 38.62 39.44 38.88 39.69 39.84 38.22 37.98 38.63 37.83 36.07 34.21 34.52 34.47 34.18 32.52 31.94 32.44 32.26 30.99 31.69 32.25 30.99 29.59 29.26 28.20
41.55 36.08 32.69 27.52 31.01 34.09 29.85 31.70 33.64 33.80 29.24 28.96 29.67 31.57 36.49 38.56 39.42 41.64 43.11 43.33 42.58 39.25 37.91 36.12 36.21 36.23 36.96 36.99 36.27 35.53 34.73 34.01 32.20 31.55 32.16 32.08 31.36 31.14 31.89 32.38 30.68 28.55 28.97 27.61
36.66 31.32 33.59 33.14 33.80 32.91 31.75 31.69 33.77 33.00 33.88 29.54 31.68 32.42 36.19 39.29 38.97 36.41 34.38 35.09 34.07 34.30 34.43 34.13 34.20 34.41 34.27 34.08 34.58 35.73 35.87 33.35 32.34 32.09 31.80 31.87 32.22 31.48 31.38 30.70 29.63 28.62 28.22 27.44
32.29 25.36 28.59 26.31 29.85 29.89 28.96 32.53 33.19 32.32 31.84 32.52 33.13 32.91 31.16 29.32 27.77 26.35 27.71 28.07 28.17 29.15 30.84 32.05 32.18 33.52 33.30 33.31 33.43 33.69 34.89 34.10 31.18 30.54 31.60 32.69 31.57 30.41 30.10 30.04 28.67 27.63 27.04 26.51
26.45 25.84 22.15 19.96 25.75 24.26 19.40 25.23 28.29 30.31 31.46 28.10 25.74 23.38 26.58 24.26 23.66 24.78 26.32 26.80 27.41 28.73 29.84 30.57 30.27 31.08 32.01 32.67 32.62 32.41 33.15 32.77 32.63 30.53 31.80 29.99 29.59 29.54 29.18 28.88 27.09 26.24 25.48 25.24
23.88 22.37 20.37 16.70 17.55 6.39 21.95 27.00 24.46 24.43 23.54 24.70 23.75 23.11 25.40 24.56 25.25 26.92 29.90 26.80 27.74 29.15 29.62 30.25 30.06 30.35 30.92 31.74 31.60 31.84 31.68 31.52 30.91 29.76 30.72 26.69 27.59 28.61 26.66 25.74 25.12 25.04 24.72 23.69
26.60 23.55 9.93 8.02 7.03 18.74 23.52 20.55 17.40 16.59 18.77 23.53 21.17 22.77 23.67 24.91 24.87 25.42 28.39 28.62 27.71 28.85 29.34 29.99 30.48 30.52 31.40 31.33 31.01 30.48 29.71 30.06 29.35 28.49 28.36 26.15 25.22 26.83 24.20 24.21 23.33 23.50 23.28 22.53
24.25 25.56 20.82 16.44 10.44 6.90 18.30 20.53 25.30 23.87 15.16 24.17 24.64 23.23 23.05 23.19 15.31 20.09 26.88 27.44 27.62 28.68 29.16 28.60 29.65 30.24 30.43 30.82 31.38 30.21 29.55 28.94 28.57 28.97 27.15 24.88 23.23 22.26 23.59 24.00 22.56 22.84 22.77 22.53
4.52 2.05 3.67 3.56 11.59 14.40 20.18 22.76 23.29 10.81 10.61 24.11 24.10 24.67 24.07 20.73 22.46 25.66 27.00 26.34 26.84 26.87 27.02 28.00 27.76 27.71 28.60 29.73 30.05 29.21 29.63 29.34 29.94 26.32 22.86 21.68 20.93 22.44 22.26 20.10 20.49 20.98 21.25 21.01
9.07 2.03 -0.90 -1.96 -4.49 2.88 21.70 20.30 15.65 18.87 24.61 25.57 24.43 22.55 20.57 22.32 22.73 22.59 23.25 23.31 23.80 23.20 23.54 24.63 23.86 24.08 25.92 26.70 27.27 27.40 28.11 30.23 28.52 23.86 21.61 22.34 23.33 18.83 19.73 20.01 19.85 20.09 19.96 18.97
8.68 13.52 9.14 11.03 9.54 22.08 23.75 21.84 25.74 26.03 24.69 23.60 22.05 22.46 21.87 20.37 19.92 20.38 19.93 20.14 20.32 20.53 21.57 21.94 21.93 22.29 22.53 23.01 24.02 23.99 25.26 26.43 28.44 27.65 23.78 22.57 23.11 22.46 22.07 21.97 20.64 19.56 19.90 18.98
18.98 22.37 16.55 14.14 21.03 21.35 23.10 25.24 24.67 26.45 23.46 23.35 22.65 20.19 20.06 18.13 19.32 19.31 18.83 18.63 18.51 18.55 18.70 19.53 18.26 16.64 17.09 19.37 19.95 19.73 20.15 22.16 25.38 27.13 26.16 23.28 21.54 21.41 21.31 21.94 21.01 20.15 18.96 18.51
18.89 18.40 15.58 16.74 21.28 22.63 23.75 24.76 24.75 23.62 22.65 21.08 20.49 19.50 18.52 18.16 17.35 17.00 15.98 15.78 16.48 17.02 17.11 16.68 14.73 14.35 13.72 14.84 14.90 16.14 17.23 17.53 17.01 19.46 23.73 24.60 20.80 20.59 19.59 20.29 19.76 20.21 20.94 21.28
22.18 19.38 16.32 14.65 23.10 22.15 23.25 25.34 22.53 20.54 19.33 18.11 16.96 16.65 18.13 16.91 15.17 15.25 13.63 14.79 14.56 13.48 13.60 12.38 11.78 10.92 10.35 9.86 9.59 10.36 11.66 12.51 13.17 13.76 16.37 22.21 22.53 20.65 19.20 18.57 18.26 24.42 24.51 24.75
MSLP
1015.61 1016.16 1015.76 1014.55 1014.98 1015.00 1015.79 1015.78 1015.33 1013.83 1013.13 1013.42 1012.59 1011.69 1010.92 1009.76 1009.24 1008.83 1008.26 1007.64 1006.72 1006.07 1004.10 1004.78 1004.96 1005.49 1006.58 1007.36 1008.25 1008.89 1009.71 1010.45 1011.66 1012.68 1013.65 1014.72 1014.88 1015.63 1016.21 1016.54 1017.02 1017.65 1018.19 1018.79
1016.34 1015.30 1013.85 1014.56 1015.02 1015.39 1015.46 1015.20 1014.83 1013.24 1012.94 1013.30 1012.20 1010.47 1010.03 1009.71 1008.15 1006.75 1006.29 1005.75 1004.90 1004.56 1004.01 1003.73 1004.50 1005.10 1005.46 1005.89 1006.57 1007.64 1008.32 1009.32 1010.21 1011.18 1011.91 1012.92 1013.89 1014.82 1015.44 1016.13 1016.60 1017.00 1017.65 1018.27
1014.64 1013.86 1013.94 1014.58 1015.02 1015.47 1014.80 1015.29 1014.06 1013.82 1013.41 1012.83 1011.65 1008.91 1008.63 1007.37 1006.81 1005.53 1004.42 1004.07 1003.94 1003.51 1003.54 1003.33 1004.17 1004.55 1004.90 1005.27 1005.65 1006.17 1007.03 1008.13 1009.15 1010.24 1011.65 1012.80 1013.89 1014.90 1015.60 1015.93 1016.31 1016.72 1017.24 1017.97
1014.44 1013.62 1013.74 1014.21 1014.66 1014.62 1013.91 1013.77 1013.91 1013.96 1014.61 1013.70 1012.29 1006.80 1007.59 1006.44 1005.64 1004.83 1003.64 1003.11 1003.22 1002.88 1002.60 1002.67 1002.95 1003.64 1004.24 1004.09 1004.83 1005.74 1006.25 1006.80 1007.86 1008.92 1010.23 1011.16 1011.82 1013.03 1013.53 1014.42 1015.47 1016.12 1016.74 1017.44
1013.29 1013.33 1013.50 1013.65 1013.04 1014.04 1013.19 1013.09 1013.69 1014.06 1014.36 1013.75 1012.82 1011.97 1005.57 1005.00 1005.34 1004.22 1002.96 1002.38 1002.11 1001.84 1002.27 1002.42 1002.48 1003.01 1002.77 1003.31 1004.00 1004.25 1005.70 1006.92 1007.18 1007.90 1008.46 1009.29 1010.06 1011.16 1012.02 1013.26 1014.49 1015.40 1016.21 1016.77
1013.42 1012.95 1013.20 1012.66 1012.37 1012.52 1013.42 1013.71 1013.95 1014.86 1014.73 1012.95 1011.65 1010.96 1003.66 1004.90 1004.11 1003.78 1003.18 1002.62 1002.31 1001.86 1001.73 1001.99 1002.40 1002.80 1003.04 1003.49 1003.87 1004.61 1004.62 1005.58 1006.57 1007.53 1008.32 1008.77 1009.43 1010.11 1011.09 1012.50 1013.82 1014.79 1015.52 1016.11
1013.19 1012.68 1012.15 1012.18 1012.91 1012.62 1012.84 1014.78 1015.23 1015.22 1015.02 1011.39 1009.38 1008.88 1004.06 1003.90 1003.33 1002.78 1002.76 1002.50 1002.67 1002.90 1002.89 1002.70 1002.87 1003.19 1003.17 1003.50 1003.47 1004.37 1005.14 1005.44 1005.47 1006.34 1006.99 1007.77 1008.68 1009.43 1009.74 1010.50 1011.61 1013.02 1014.53 1015.25
1013.60 1011.60 1011.85 1011.93 1011.80 1012.06 1012.32 1013.41 1014.99 1014.25 1013.39 1010.87 1009.77 1005.67 1002.41 1002.33 1002.00 1001.86 1002.32 1002.87 1003.24 1003.26 1002.99 1003.12 1002.97 1002.70 1003.73 1004.31 1004.57 1004.20 1004.38 1005.16 1005.94 1006.05 1006.32 1007.05 1008.23 1009.06 1009.74 1010.11 1010.75 1011.54 1012.31 1013.44
1013.26 1011.54 1011.23 1011.17 1011.28 1011.32 1012.50 1012.64 1012.13 1012.98 1012.48 1012.02 1007.79 1004.54 1002.24 1001.86 1001.90 1002.08 1002.32 1002.58 1003.01 1003.22 1003.66 1003.24 1002.97 1003.19 1003.25 1003.98 1004.92 1005.73 1005.65 1005.35 1005.16 1005.91 1006.75 1006.49 1006.58 1007.83 1008.96 1009.77 1010.18 1010.68 1011.41 1012.20
1013.19 1012.06 1011.14 1011.29 1011.25 1011.47 1011.57 1011.87 1012.66 1012.95 1012.47 1010.85 1007.51 1005.53 1002.18 1002.24 1002.11 1002.18 1002.43 1002.77 1003.13 1002.92 1003.44 1002.80 1002.79 1003.39 1003.83 1003.96 1003.81 1004.53 1004.77 1005.06 1005.62 1005.61 1005.75 1006.31 1006.59 1006.78 1007.90 1008.94 1009.52 1009.98 1010.94 1011.62
1013.22 1014.32 1011.55 1011.75 1011.01 1011.19 1012.07 1011.52 1011.60 1011.84 1011.26 1009.73 1007.78 1004.57 1000.79 1001.65 1001.89 1001.89 1002.51 1002.74 1003.20 1002.91 1002.66 1003.06 1003.19 1003.46 1003.34 1003.34 1003.74 1003.60 1003.80 1004.26 1004.86 1004.91 1005.13 1005.82 1005.90 1006.32 1006.80 1007.66 1008.27 1008.96 1009.80 1010.62
1012.92 1013.53 1013.08 1011.34 1010.82 1010.17 1010.85 1010.93 1010.86 1010.77 1009.25 1008.13 1006.36 1003.48 1001.46 1001.30 1001.96 1001.77 1001.54 1002.49 1002.84 1003.08 1003.20 1002.87 1003.00 1003.00 1003.16 1003.07 1003.29 1003.53 1003.25 1003.47 1003.44 1004.21 1004.49 1004.52 1005.16 1005.66 1006.27 1006.57 1007.07 1007.70 1008.45 1009.58
1012.91 1012.98 1012.56 1011.42 1010.46 1010.84 1010.64 1010.18 1009.84 1009.26 1008.97 1007.74 1006.01 1003.72 1003.86 1002.79 1001.15 1001.39 1002.40 1002.60 1002.77 1002.61 1002.80 1002.69 1002.82 1003.17 1003.33 1002.92 1002.89 1003.06 1002.92 1002.69 1003.01 1003.80 1003.96 1004.38 1004.56 1004.89 1004.94 1005.22 1006.22 1006.92 1007.47 1008.47
1013.11 1012.78 1012.39 1012.00 1011.02 1010.77 1010.88 1009.97 1009.63 1009.20 1008.19 1006.31 1005.81 1004.73 1004.90 1004.90 1004.35 1002.63 1001.97 1003.65 1003.54 1004.08 1004.83 1005.27 1005.38 1005.06 1005.19 1004.93 1004.30 1004.07 1003.57 1003.08 1003.05 1003.01 1002.89 1003.30 1003.41 1003.06 1003.42 1004.17 1005.06 1006.42 1006.65 1007.49
1014.15 1012.91 1012.37 1012.27 1012.24 1012.02 1011.26 1010.93 1009.96 1008.77 1007.83 1007.12 1006.31 1006.35 1006.67 1006.45 1006.40 1006.69 1006.70 1006.76 1006.54 1006.55 1006.66 1006.64 1006.89 1006.46 1005.70 1004.87 1004.61 1004.46 1003.47 1003.00 1002.11 1002.57 1002.92 1003.24 1002.83 1002.66 1002.97 1003.24 1003.99 1005.07 1005.61 1006.29
1015.12 1014.43 1013.93 1012.85 1012.12 1012.31 1011.25 1010.85 1010.08 1009.70 1008.87 1008.00 1008.03 1007.61 1009.55 1010.21 1010.01 1009.53 1009.61 1009.27 1008.93 1008.73 1008.29 1007.86 1007.76 1007.07 1006.12 1005.21 1004.22 1003.32 1003.40 1003.67 1002.65 1002.37 1002.07 1001.72 1001.98 1002.47 1002.05 1002.43 1003.20 1003.93 1004.52 1005.38
1016.26 1015.54 1015.18 1013.42 1012.98 1012.88 1011.28 1010.11 1009.80 1009.43 1008.87 1009.52 1010.37 1012.25 1011.73 1012.10 1011.59 1011.44 1010.90 1011.05 1010.42 1009.84 1009.24 1008.43 1007.96 1007.55 1006.99 1006.38 1005.76 1005.14 1004.31 1003.82 1002.80 1001.95 1001.87 1001.47 1001.63 1001.57 1001.72 1001.46 1002.15 1002.67 1003.68 1004.75
1015.58 1015.96 1016.36 1015.07 1014.72 1013.33 1009.73 1009.80 1010.52 1010.97 1011.89 1012.75 1012.74 1013.06 1013.75 1013.84 1013.26 1012.22 1011.92 1011.74 1011.39 1010.69 1010.45 1009.64 1008.77 1008.11 1007.74 1007.11 1006.26 1005.66 1004.95 1003.87 1002.78 1001.84 1001.26 1001.13 1001.28 1001.04 1001.31 1001.58 1001.51 1001.98 1002.64 1003.54
1015.85 1016.47 1017.01 1016.75 1015.21 1012.67 1011.70 1012.75 1013.34 1013.44 1013.46 1013.67 1013.96 1014.17 1014.19 1013.80 1012.69 1011.75 1011.93 1012.33 1012.31 1011.09 1010.98 1010.53 1009.69 1008.95 1008.24 1007.19 1006.51 1005.98 1005.22 1004.24 1003.08 1001.96 1001.10 1001.27 1001.34 1001.03 1001.39 1001.70 1001.44 1001.71 1002.19 1003.17
1016.23 1016.54 1017.69 1017.30 1016.57 1014.98 1013.86 1013.87 1013.47 1013.51 1013.79 1014.08 1013.98 1014.01 1014.01 1013.72 1013.10 1011.42 1012.24 1012.50 1012.21 1011.14 1010.89 1010.18 1009.71 1009.40 1007.86 1006.90 1006.59 1005.84 1005.21 1004.48 1003.54 1002.62 1001.78 1000.96 1000.87 1001.40 1001.37 1001.68 1001.56 1001.57 1001.59 1002.75
1017.97 1018.14 1018.61 1017.98 1017.03 1015.13 1014.40 1013.38 1013.08 1013.93 1013.84 1013.54 1013.94 1013.93 1013.88 1013.81 1013.56 1012.18 1011.94 1011.78 1011.68 1011.58 1010.87 1010.50 1009.61 1009.15 1007.94 1007.48 1006.49 1005.71 1005.12 1004.49 1003.85 1002.87 1001.69 1001.30 1001.21 1001.22 1001.90 1001.73 1001.54 1001.71 1002.18 1002.86
1018.38 1018.79 1018.77 1017.92 1017.05 1015.32 1013.73 1013.28 1013.88 1013.42 1012.99 1013.18 1013.55 1013.64 1013.74 1013.57 1013.21 1012.77 1012.22 1011.80 1011.34 1011.09 1010.47 1010.08 1009.40 1009.02 1008.59 1008.05 1006.83 1005.57 1005.19 1004.58 1004.05 1002.82 1001.81 1001.46 1001.12 1001.34 1001.61 1002.12 1001.72 1001.78 1002.25 1002.73
1017.46 1017.05 1016.91 1016.65 1014.72 1013.17 1012.77 1012.78 1012.44 1012.42 1012.56 1012.75 1013.13 1013.30 1013.53 1013.51 1013.14 1012.83 1012.42 1011.83 1011.14 1010.57 1010.04 1009.99 1009.85 1008.76 1008.22 1007.65 1006.93 1005.68 1005.06 1004.74 1004.17 1002.86 1001.68 1000.96 1000.63 1000.57 1001.16 1001.83 1001.75 1001.52 1002.08 1003.00
1015.49 1015.17 1015.29 1014.98 1013.35 1012.67 1012.24 1011.84 1011.98 1011.98 1012.22 1012.50 1012.84 1013.26 1013.61 1013.50 1013.10 1012.74 1012.40 1011.60 1011.12 1010.67 1010.22 1009.76 1009.27 1008.82 1008.10 1007.74 1006.96 1006.01 1005.27 1004.76 1004.16 1002.62 1001.55 1000.32 1000.08 1000.29 1000.43 1000.65 1001.06 1000.94 1001.36 1002.02
1014.06 1014.21 1013.74 1012.84 1012.15 1011.76 1011.37 1011.05 1011.36 1011.78 1012.22 1012.60 1012.85 1013.19 1013.44 1013.46 1012.85 1012.88 1012.32 1011.74 1011.24 1010.58 1010.01 1009.83 1009.32 1008.63 1007.83 1007.73 1006.59 1006.40 1005.89 1005.45 1004.43 1002.80 1001.64 1000.06 999.09 999.49 999.77 999.40 999.48 1000.42 999.77 1000.29
1012.85 1012.48 1012.52 1011.44 1010.86 1011.12 1010.93 1010.85 1011.51 1012.12 1012.50 1013.08 1013.49 1013.25 1013.26 1013.37 1012.83 1012.76 1012.01 1011.54 1011.11 1010.48 1009.96 1009.50 1008.91 1008.18 1006.82 1006.79 1006.29 1006.35 1005.98 1005.51 1004.15 1002.49 1001.68 999.72 998.29 998.27 998.74 998.84 998.91 998.62 999.65 999.78
Wind_Speed
3 5 12 23 17 6 4 6 8 11 10 3 11 15 17 20 15 14 16 20 21 22 26 14 12 11 12 12 15 18 19 18 15 11 11 9 13 9 8 8 10 11 9 9
1 12 21 1 3 8 11 16 15 18 17 5 17 24 20 13 21 25 23 22 24 20 20 19 8 9 15 18 19 18 19 18 17 13 12 6 10 5 7 6 8 10 10 10
17 9 11 8 6 7 9 8 17 16 7 6 10 20 16 14 19 24 24 22 21 21 20 20 9 11 10 14 17 19 20 19 17 15 9 4 6 4 3 5 6 8 10 9
10 8 10 5 7 13 19 13 14 13 3 12 3 19 7 11 16 11 19 17 15 18 15 17 12 9 11 15 12 13 17 19 18 19 16 17 12 11 8 9 8 8 10 10
11 4 4 7 16 10 12 5 7 4 5 5 5 7 1 5 7 15 17 17 16 16 13 16 12 9 14 10 13 15 15 15 17 18 18 16 15 10 5 6 11 11 9 10
12 2 6 9 6 11 1 2 2 4 3 12 14 11 4 6 9 5 7 11 12 16 11 9 6 6 7 6 8 11 17 17 17 18 17 20 19 11 9 10 10 9 8 8
2 5 4 5 4 2 6 3 5 5 1 13 6 8 13 7 8 9 11 12 10 9 9 12 9 8 6 8 10 10 13 15 16 19 19 18 17 15 18 15 13 14 10 9
3 14 8 5 9 8 9 13 8 9 8 18 5 16 14 9 10 7 4 5 8 10 10 10 10 6 5 5 6 11 14 13 14 15 17 15 15 10 10 12 10 11 12 12
4 10 2 4 2 8 4 7 5 1 2 1 11 20 19 6 7 1 6 4 6 7 9 11 9 5 3 5 4 5 7 9 14 14 12 15 14 13 12 9 9 10 10 10
2 14 4 0 2 3 7 3 2 2 3 10 16 10 21 15 19 19 6 6 7 6 9 9 8 8 4 5 8 9 9 13 10 11 13 12 13 14 11 9 13 13 10 12
5 3 11 5 7 11 1 4 5 1 5 15 19 17 25 18 10 6 7 8 8 9 9 8 8 6 7 8 8 8 9 10 10 13 13 13 13 14 13 13 14 14 13 14
9 2 12 12 5 6 4 7 7 10 10 11 19 20 28 28 20 16 23 14 6 6 7 7 6 7 8 8 7 9 8 11 14 13 12 15 14 13 15 15 16 15 16 15
7 6 11 13 4 1 7 12 16 17 15 22 23 18 15 24 31 26 21 7 9 8 9 8 8 8 9 8 7 8 10 15 9 8 11 13 14 13 16 17 15 15 15 16
2 17 20 18 22 15 10 8 11 18 14 20 21 27 23 25 28 32 37 18 18 13 17 18 16 14 14 13 10 9 10 8 6 9 14 17 15 19 18 15 14 15 15 16
2 8 8 11 11 14 21 22 26 29 26 25 22 27 24 26 22 20 19 19 19 19 18 17 17 15 15 17 15 11 9 7 6 10 12 15 14 12 13 13 15 15 16 16
2 8 13 21 24 20 22 17 17 18 18 21 25 30 19 17 19 21 17 20 18 17 18 17 18 19 18 18 18 19 17 14 7 10 15 14 12 12 14 14 14 15 15 15
6 6 6 21 23 21 17 23 23 23 17 13 13 10 12 18 21 22 13 18 19 20 20 18 17 18 18 18 17 17 18 18 13 10 12 9 9 12 14 13 14 16 15 14
16 17 8 17 15 13 10 3 8 4 10 9 9 12 12 13 14 12 9 18 17 16 16 17 16 17 18 16 17 17 18 17 14 13 11 4 6 8 7 11 14 14 14 17
15 11 5 3 8 14 11 9 6 8 3 6 5 6 9 10 13 10 9 11 15 13 14 13 14 16 16 17 16 16 17 17 16 13 11 6 5 6 7 11 11 11 12 12
4 10 8 6 7 6 3 4 7 7 7 6 5 5 6 9 11 14 11 14 14 13 14 15 16 17 15 16 16 17 18 15 15 15 13 5 4 5 8 9 10 8 8 10
4 4 4 6 7 6 3 5 2 3 7 4 5 4 6 7 8 17 16 13 11 13 15 17 15 16 17 15 15 18 17 18 14 12 7 5 3 4 5 4 3 5 7 7
4 3 4 1 1 9 3 5 1 7 4 4 5 5 5 7 11 13 15 15 14 16 14 14 14 14 15 16 14 16 18 17 14 10 6 6 5 3 3 5 4 7 8 9
5 8 6 10 8 6 10 8 9 7 9 5 5 6 5 9 11 12 13 15 15 15 14 13 12 15 15 15 15 18 17 18 21 16 11 8 6 5 6 7 8 7 9 8
9 15 8 1 11 15 12 14 7 7 7 6 5 5 6 10 12 14 14 15 14 15 14 12 13 15 18 14 16 17 18 17 19 19 16 9 8 8 8 7 7 9 10 10
9 4 7 14 17 16 18 15 12 7 6 3 4 6 9 9 14 13 14 16 15 16 15 14 15 17 19 16 17 14 16 16 19 19 17 13 8 9 9 10 10 10 10 13
11 19 13 16 20 15 15 10 3 5 4 2 7 12 10 11 15 14 17 15 15 17 17 17 18 19 22 18 18 15 14 15 17 17 15 13 9 7 8 8 8 22 20 20
Wind_Direction
204 137 207 220 203 233 192 226 234 255 263 224 234 250 254 268 277 255 261 264 263 262 266 256 221 199 190 186 188 191 186 189 175 176 175 187 196 191 192 192 184 181 179 174
77 216 225 236 160 218 234 254 260 270 265 205 268 264 265 254 259 261 259 258 260 260 271 267 229 189 187 192 196 193 193 184 187 185 190 188 185 192 196 184 185 184 178 175
222 218 220 205 216 242 222 225 253 264 307 237 280 273 248 250 248 263 264 254 268 260 266 272 239 213 197 201 192 193 189 185 186 181 159 85 83 65 125 188 191 192 180 176
245 238 207 166 212 211 264 219 254 263 347 276 3 297 258 237 248 229 261 268 250 267 256 254 243 212 208 215 195 191 187 180 182 173 173 180 189 188 194 193 192 181 178 179
244 197 164 192 226 166 252 179 220 199 198 314 178 260 189 166 246 251 252 259 262 250 252 265 261 218 216 190 189 178 177 184 182 183 184 184 190 190 158 164 164 177 181 181
254 343 177 218 207 180 51 45 71 56 120 262 196 205 21 166 217 273 277 264 259 271 282 271 294 257 237 182 167 180 173 178 180 183 190 196 195 168 155 162 175 186 187 184
322 220 236 177 248 139 128 69 309 319 6 253 177 214 245 263 225 211 246 269 317 318 303 305 293 257 230 195 166 172 181 187 182 184 190 193 196 190 188 176 179 174 180 192
257 292 188 171 198 196 185 165 176 227 259 281 124 259 274 228 235 255 351 275 311 318 331 297 271 283 266 217 199 179 180 185 191 191 194 191 199 196 199 188 182 185 188 189
205 263 228 200 172 160 179 178 197 297 16 344 260 276 287 260 296 349 303 347 310 320 318 315 321 300 261 191 190 221 198 198 195 198 203 202 191 195 198 190 182 184 180 173
313 296 210 327 201 193 174 183 59 354 206 256 275 272 262 284 287 284 254 277 293 312 303 337 335 303 278 224 178 194 196 211 205 199 204 206 202 192 186 173 189 187 179 169
95 264 260 352 203 228 162 229 199 200 196 247 260 265 268 272 265 242 269 275 299 305 327 327 323 303 240 211 216 210 201 204 211 203 199 203 198 198 187 190 191 190 173 176
201 271 256 254 250 176 168 229 208 230 251 236 253 251 281 280 285 265 276 291 274 275 283 308 285 275 266 247 228 226 213 214 215 213 202 207 204 198 201 202 198 186 183 181
189 220 279 290 280 308 197 227 232 243 263 259 264 265 270 293 294 286 291 260 273 264 277 285 292 272 271 269 255 234 223 228 223 206 210 213 209 198 208 208 199 190 182 184
176 255 251 257 267 298 286 259 248 240 248 255 256 270 269 273 282 295 302 336 347 6 16 19 10 7 1 344 328 302 272 259 257 219 212 215 207 207 208 205 194 191 187 184
1 274 273 289 300 311 313 303 287 270 266 261 272 279 284 282 311 354 7 7 17 12 9 2 348 339 341 349 344 332 320 273 232 232 226 234 233 215 201 197 192 191 191 192
15 280 310 287 286 282 274 271 272 281 282 276 276 275 12 16 11 10 12 10 7 0 352 345 337 335 339 339 339 341 339 326 274 239 236 235 220 213 206 197 190 190 189 187
257 258 272 274 281 299 277 261 270 273 279 323 306 11 2 5 358 342 19 0 349 343 340 337 337 335 334 333 332 327 328 320 319 272 256 232 217 210 208 190 184 187 188 182
252 257 249 267 289 258 256 22 44 16 65 33 60 34 8 341 322 339 335 349 337 342 335 332 332 329 328 328 327 326 326 319 321 317 298 264 222 218 198 192 191 188 182 188
222 245 266 223 211 269 299 15 18 20 1 55 0 7 328 326 310 318 333 348 323 325 323 312 313 310 308 318 320 318 319 319 323 323 318 285 228 212 194 205 195 191 181 191
155 210 228 300 291 264 161 239 218 270 238 221 206 295 314 335 334 308 333 321 308 315 315 315 309 307 310 317 316 315 314 316 317 327 312 273 217 223 210 214 198 188 180 189
2 348 189 246 265 276 233 301 301 67 275 127 164 219 265 292 272 288 307 300 300 298 305 304 308 305 311 313 315 310 308 307 306 306 297 288 256 215 233 191 171 164 168 163
159 173 232 21 78 280 315 352 120 231 245 203 209 234 250 267 284 287 296 300 302 303 305 302 303 301 304 308 309 304 303 309 296 290 283 260 221 198 177 194 157 154 162 159
254 201 233 188 214 280 314 246 253 257 254 224 235 238 263 282 281 288 291 298 301 303 306 305 292 296 300 299 303 300 304 314 307 293 278 254 228 186 185 191 177 159 162 176
243 244 231 7 260 261 257 267 258 224 218 241 226 229 235 265 276 284 290 291 296 298 299 305 305 296 293 297 298 296 303 304 301 301 280 250 218 207 190 190 197 185 183 192
235 132 226 256 271 270 270 261 260 211 245 263 290 286 282 270 277 285 283 285 288 291 296 299 296 293 289 294 292 294 298 302 293 291 290 271 224 211 209 205 193 212 205 199
235 244 246 252 268 264 277 294 153 234 213 261 286 292 285 286 286 293 285 285 292 294 296 295 292 293 295 297 289 289 291 288 288 289 284 281 244 221 217 214 214 217 224 217